• In Russia
  • List of Countries
  • For 7 days
  • Water Temperature
  • Satellite Maps
  • Weather Map
  • Weather Widgets
  • user-avatar
    Login

    Hourly Weather Mazari Sharif

    Today, 20 November, Monday

    Time Temperature Precipitation Wind Pressure Humidity
    00:00 +5°C° 0 mm 1 mps 658 mmHg 46%
    01:00 +5°C° 0 mm 1 mps 658 mmHg 46%
    02:00 +5°C° 0 mm 1 mps 658 mmHg 45%
    03:00 +4°C° 0 mm 1 mps 657 mmHg 45%
    04:00 +4°C° 0 mm 1 mps 657 mmHg 48%
    05:00 +4°C° 0 mm 1 mps 657 mmHg 45%
    06:00 +5°C° 0 mm 1 mps 657 mmHg 42%
    07:00 +5°C° 0 mm 1 mps 658 mmHg 40%
    08:00 +7°C° 0 mm 1 mps 658 mmHg 34%
    09:00 +8°C° 0 mm 2 mps 659 mmHg 28%
    10:00 +12°C° 0 mm 2 mps 659 mmHg 22%
    11:00 +12°C° 0 mm 2 mps 659 mmHg 21%
    12:00 +13°C° 0 mm 2 mps 659 mmHg 20%
    13:00 +13°C° 0 mm 2 mps 659 mmHg 18%
    14:00 +12°C° 0 mm 2 mps 658 mmHg 21%
    15:00 +10°C° 0 mm 2 mps 658 mmHg 25%
    16:00 +9°C° 0 mm 2 mps 657 mmHg 27%
    17:00 +9°C° 0 mm 1 mps 657 mmHg 29%
    18:00 +8°C° 0 mm 1 mps 657 mmHg 31%
    19:00 +7°C° 0 mm 1 mps 657 mmHg 33%
    20:00 +7°C° 0 mm 1 mps 657 mmHg 32%
    21:00 +7°C° 0 mm 1 mps 657 mmHg 30%
    22:00 +6°C° 0 mm 2 mps 657 mmHg 29%
    23:00 +5°C° 0 mm 2 mps 657 mmHg 28%

    Tomorrow, 21 November, Tuesday

    Time Temperature Precipitation Wind Pressure Humidity
    00:00 +5°C° 0 mm 2 mps 657 mmHg 27%
    01:00 +5°C° 0 mm 2 mps 656 mmHg 26%
    02:00 +5°C° 0 mm 2 mps 656 mmHg 25%
    03:00 +5°C° 0 mm 2 mps 656 mmHg 24%
    04:00 +5°C° 0 mm 2 mps 656 mmHg 23%
    05:00 +4°C° 0 mm 3 mps 656 mmHg 22%
    06:00 +4°C° 0 mm 3 mps 656 mmHg 21%
    07:00 +4°C° 0 mm 3 mps 656 mmHg 20%
    08:00 +7°C° 0 mm 2 mps 657 mmHg 17%
    09:00 +10°C° 0 mm 2 mps 657 mmHg 14%
    10:00 +13°C° 0 mm 2 mps 658 mmHg 11%
    11:00 +14°C° 0 mm 2 mps 658 mmHg 10%
    12:00 +14°C° 0 mm 2 mps 657 mmHg 10%
    13:00 +14°C° 0 mm 3 mps 657 mmHg 9%
    14:00 +14°C° 0 mm 2 mps 656 mmHg 11%
    15:00 +12°C° 0 mm 2 mps 656 mmHg 13%
    16:00 +10°C° 0 mm 2 mps 655 mmHg 15%
    17:00 +9°C° 0 mm 2 mps 655 mmHg 15%
    18:00 +8°C° 0 mm 2 mps 655 mmHg 15%
    19:00 +7°C° 0 mm 2 mps 655 mmHg 15%
    20:00 +7°C° 0 mm 2 mps 655 mmHg 14%
    21:00 +7°C° 0 mm 2 mps 654 mmHg 14%
    22:00 +7°C° 0 mm 2 mps 654 mmHg 13%
    23:00 +7°C° 0 mm 2 mps 654 mmHg 13%

    Day after tomorrow, 22 November, Wednesday

    Time Temperature Precipitation Wind Pressure Humidity
    00:00 +7°C° 0 mm 3 mps 654 mmHg 14%
    01:00 +5°C° 0 mm 3 mps 654 mmHg 14%
    02:00 +5°C° 0 mm 3 mps 653 mmHg 13%
    03:00 +6°C° 0 mm 2 mps 653 mmHg 13%
    04:00 +5°C° 0 mm 2 mps 653 mmHg 13%
    05:00 +5°C° 0 mm 3 mps 653 mmHg 13%
    06:00 +5°C° 0 mm 3 mps 653 mmHg 12%
    07:00 +5°C° 0 mm 3 mps 654 mmHg 12%
    08:00 +9°C° 0 mm 3 mps 654 mmHg 10%
    09:00 +12°C° 0 mm 2 mps 655 mmHg 8%
    10:00 +15°C° 0 mm 2 mps 656 mmHg 7%
    11:00 +16°C° 0 mm 2 mps 655 mmHg 6%
    12:00 +17°C° 0 mm 2 mps 655 mmHg 6%
    13:00 +17°C° 0 mm 3 mps 654 mmHg 5%
    14:00 +16°C° 0 mm 2 mps 654 mmHg 7%
    15:00 +14°C° 0 mm 2 mps 653 mmHg 9%
    16:00 +12°C° 0 mm 1 mps 652 mmHg 11%
    17:00 +12°C° 0 mm 1 mps 653 mmHg 11%
    18:00 +10°C° 0 mm 2 mps 653 mmHg 10%
    19:00 +10°C° 0 mm 2 mps 653 mmHg 10%
    20:00 +10°C° 0 mm 2 mps 653 mmHg 11%
    21:00 +9°C° 0 mm 2 mps 653 mmHg 12%
    22:00 +9°C° 0 mm 2 mps 653 mmHg 12%
    23:00 +9°C° 0 mm 2 mps 653 mmHg 13%

    23 November, Thursday

    Time Temperature Precipitation Wind Pressure Humidity
    00:00 +9°C° 0 mm 2 mps 652 mmHg 14%
    01:00 +9°C° 0 mm 2 mps 652 mmHg 14%
    02:00 +9°C° 0 mm 2 mps 652 mmHg 14%
    03:00 +9°C° 0 mm 2 mps 652 mmHg 15%
    04:00 +9°C° 0 mm 2 mps 652 mmHg 15%
    05:00 +9°C° 0 mm 2 mps 652 mmHg 15%
    06:00 +9°C° 0 mm 2 mps 652 mmHg 15%
    07:00 +9°C° 0 mm 2 mps 653 mmHg 15%
    08:00 +12°C° 0 mm 2 mps 653 mmHg 13%
    09:00 +14°C° 0 mm 2 mps 654 mmHg 11%
    10:00 +18°C° 0 mm 1 mps 655 mmHg 9%
    11:00 +18°C° 0 mm 1 mps 655 mmHg 10%
    12:00 +19°C° 0 mm 1 mps 654 mmHg 10%
    13:00 +18°C° 0 mm 2 mps 654 mmHg 10%
    14:00 +18°C° 0 mm 1 mps 654 mmHg 13%
    15:00 +16°C° 0 mm 1 mps 654 mmHg 16%
    16:00 +15°C° 0 mm 1 mps 653 mmHg 19%
    17:00 +14°C° 0 mm 1 mps 654 mmHg 20%
    18:00 +14°C° 0 mm 1 mps 654 mmHg 22%
    19:00 +13°C° 0 mm 1 mps 654 mmHg 23%
    20:00 +13°C° 0 mm 2 mps 654 mmHg 25%
    21:00 +12°C° 0 mm 2 mps 654 mmHg 26%
    22:00 +12°C° 0 mm 2 mps 654 mmHg 27%
    23:00 +12°C° 0 mm 2 mps 654 mmHg 27%

    24 November, Friday

    Time Temperature Precipitation Wind Pressure Humidity
    00:00 +10°C° 0 mm 2 mps 654 mmHg 28%
    01:00 +10°C° 0 mm 2 mps 653 mmHg 28%
    02:00 +10°C° 0 mm 2 mps 653 mmHg 28%
    03:00 +10°C° 0 mm 2 mps 653 mmHg 28%
    04:00 +10°C° 0 mm 2 mps 653 mmHg 29%
    05:00 +10°C° 0 mm 2 mps 654 mmHg 29%
    06:00 +10°C° 0 mm 2 mps 654 mmHg 29%
    07:00 +10°C° 0 mm 2 mps 654 mmHg 30%
    08:00 +12°C° 0 mm 2 mps 655 mmHg 27%
    09:00 +14°C° 0 mm 2 mps 655 mmHg 24%
    10:00 +16°C° 0 mm 2 mps 656 mmHg 20%
    11:00 +17°C° 0 mm 2 mps 655 mmHg 20%
    12:00 +17°C° 0 mm 2 mps 655 mmHg 19%
    13:00 +17°C° 0 mm 2 mps 654 mmHg 19%
    14:00 +17°C° 0 mm 2 mps 654 mmHg 20%
    15:00 +16°C° 0 mm 2 mps 654 mmHg 22%
    16:00 +15°C° 0 mm 1 mps 654 mmHg 23%
    17:00 +14°C° 0 mm 1 mps 654 mmHg 25%
    18:00 +14°C° 0 mm 1 mps 654 mmHg 26%
    19:00 +13°C° 0 mm 1 mps 654 mmHg 28%
    20:00 +12°C° 0 mm 1 mps 654 mmHg 29%
    21:00 +12°C° 0 mm 1 mps 654 mmHg 31%
    22:00 +11°C° 0 mm 1 mps 654 mmHg 33%
    23:00 +11°C° 0 mm 1 mps 654 mmHg 33%

    25 November, Saturday

    Time Temperature Precipitation Wind Pressure Humidity
    00:00 +11°C° 0 mm 1 mps 654 mmHg 33%
    01:00 +10°C° 0 mm 2 mps 654 mmHg 33%
    02:00 +10°C° 0 mm 2 mps 653 mmHg 32%
    03:00 +10°C° 0 mm 2 mps 653 mmHg 31%
    04:00 +10°C° 0 mm 3 mps 653 mmHg 30%
    05:00 +10°C° 0 mm 3 mps 653 mmHg 30%
    06:00 +10°C° 0 mm 3 mps 653 mmHg 30%
    07:00 +10°C° 0 mm 3 mps 653 mmHg 30%
    08:00 +12°C° 0 mm 3 mps 654 mmHg 27%
    09:00 +14°C° 0 mm 3 mps 654 mmHg 24%
    10:00 +17°C° 0 mm 2 mps 654 mmHg 21%
    11:00 +17°C° 0.1 mm 2 mps 654 mmHg 21%
    12:00 +18°C° 0.1 mm 2 mps 654 mmHg 20%
    13:00 +19°C° 0.1 mm 2 mps 653 mmHg 19%
    14:00 +17°C° 0.2 mm 4 mps 653 mmHg 25%
    15:00 +14°C° 0.2 mm 6 mps 654 mmHg 31%
    16:00 +11°C° 0.2 mm 8 mps 654 mmHg 37%
    17:00 +9°C° 1.1 mm 7 mps 654 mmHg 52%
    18:00 +8°C° 1.1 mm 6 mps 655 mmHg 67%
    19:00 +6°C° 1.1 mm 5 mps 656 mmHg 82%
    20:00 +6°C° 0.9 mm 4 mps 656 mmHg 82%
    21:00 +6°C° 0.9 mm 4 mps 657 mmHg 82%
    22:00 +6°C° 0.9 mm 4 mps 658 mmHg 82%
    23:00 +5°C° 0.2 mm 3 mps 658 mmHg 82%
    Show more